GW5170 Weather Reports


time (UTC)temp
C
wind
direction
speed
KPH
gust
KPH
rain 1hr
cm
rain 24hr
cm
rain mn
cm
humidity
%
barometer
mb
20260507095654 0 333 0.0 0.0 0.00 0.00 0.00 86 1015.6
20260507095151 0 335 0.0 0.0 0.00 0.00 0.00 85 1015.7
20260507094647 0 27 1.6 1.6 0.00 0.00 0.00 84 1015.5
20260507094144 0 339 0.0 0.0 0.00 0.00 0.00 84 1015.9
20260507093641 0 338 0.0 0.0 0.00 0.00 0.00 84 1015.9
20260507093141 0 334 0.0 0.0 0.00 0.00 0.00 84 1015.9
20260507092636 0 334 0.0 0.0 0.00 0.00 0.00 83 1015.9
20260507092133 0 330 0.0 0.0 0.00 0.00 0.00 83 1015.9
20260507091629 0 337 0.0 0.0 0.00 0.00 0.00 83 1015.9
20260507091125 0 341 0.0 0.0 0.00 0.00 0.00 83 1016.0
20260507090621 0 341 0.0 0.0 0.00 0.00 0.00 83 1016.0
20260507090119 0 341 0.0 0.0 0.00 0.00 0.00 82 1015.9
20260507085616 0 349 0.0 1.6 0.00 0.00 0.00 81 1015.9
20260507085112 0 344 0.0 0.0 0.00 0.00 0.00 81 1016.0
20260507084609 0 341 0.0 0.0 0.00 0.00 0.00 81 1016.1
20260507084106 0 342 0.0 0.0 0.00 0.00 0.00 80 1016.3
20260507083603 0 342 0.0 0.0 0.00 0.00 0.00 80 1016.2
20260507083100 0 341 0.0 1.6 0.00 0.00 0.00 80 1016.3
20260507082555 0 338 0.0 0.0 0.00 0.00 0.00 80 1016.3
20260507082052 0 332 0.0 0.0 0.00 0.00 0.00 81 1016.4
20260507081548 0 329 0.0 0.0 0.00 0.00 0.00 80 1016.2
20260507081045 1 328 0.0 0.0 0.00 0.00 0.00 79 1016.4
20260507080541 1 337 0.0 0.0 0.00 0.00 0.00 77 1016.3
20260507080038 1 317 0.0 0.0 0.00 0.00 0.00 72 1016.5
20260507075533 1 319 0.0 0.0 0.00 0.00 0.00 73 1016.6
20260507075030 1 299 1.6 1.6 0.00 0.00 0.00 71 1016.5
20260507074526 1 296 1.6 1.6 0.00 0.00 0.00 72 1016.7
20260507074025 1 290 1.6 3.2 0.00 0.00 0.00 74 1016.7
20260507073521 1 342 0.0 0.0 0.00 0.00 0.00 83 1016.5
20260507073017 0 341 0.0 0.0 0.00 0.00 0.00 84 1016.7
20260507072515 1 341 0.0 0.0 0.00 0.00 0.00 83 1016.7
20260507072012 1 341 0.0 0.0 0.00 0.00 0.00 84 1017.0
20260507071509 1 342 0.0 0.0 0.00 0.00 0.00 84 1017.0
20260507071006 1 342 0.0 0.0 0.00 0.00 0.00 84 1016.8
20260507070503 1 342 0.0 0.0 0.00 0.00 0.00 85 1017.0
20260507070000 1 342 0.0 0.0 0.00 0.00 0.00 85 1017.1
20260507065456 1 342 0.0 1.6 0.00 0.00 0.00 86 1016.9
20260507064953 1 342 0.0 0.0 0.00 0.00 0.00 87 1016.9
20260507064452 1 342 0.0 0.0 0.00 0.00 0.00 87 1016.9
20260507063949 1 341 0.0 0.0 0.00 0.00 0.00 87 1017.1
20260507063446 1 341 0.0 0.0 0.00 0.00 0.00 87 1017.2
20260507062943 1 341 0.0 0.0 0.00 0.00 0.00 87 1017.1
20260507062440 1 341 0.0 0.0 0.00 0.00 0.00 86 1017.3
20260507061937 1 341 0.0 0.0 0.00 0.00 0.00 85 1017.2
20260507061435 2 340 0.0 1.6 0.00 0.00 0.00 84 1017.3
20260507060934 2 340 0.0 1.6 0.00 0.00 0.00 83 1017.3
20260507060430 2 340 0.0 0.0 0.00 0.00 0.00 83 1017.1
20260507055927 1 339 0.0 1.6 0.00 0.00 0.00 84 1017.3
20260507055422 1 340 0.0 0.0 0.00 0.00 0.00 84 1017.4
20260507054919 1 340 0.0 0.0 0.00 0.00 0.00 83 1017.4
20260507054415 2 340 0.0 0.0 0.00 0.00 0.00 82 1017.7
20260507053913 2 340 0.0 0.0 0.00 0.00 0.00 83 1017.5
20260507053410 2 339 0.0 0.0 0.00 0.00 0.00 83 1017.5
20260507052909 2 339 0.0 0.0 0.00 0.00 0.00 82 1017.6
20260507052406 2 339 0.0 0.0 0.00 0.00 0.00 82 1017.5
20260507051903 2 339 0.0 0.0 0.00 0.00 0.00 82 1017.5
20260507051400 2 340 0.0 0.0 0.00 0.00 0.00 81 1017.4
20260507050857 2 340 0.0 0.0 0.00 0.00 0.00 80 1017.3
20260507050354 2 340 0.0 1.6 0.00 0.00 0.00 80 1017.3
20260507045850 2 340 0.0 1.6 0.00 0.00 0.00 79 1017.4
20260507045347 2 342 1.6 1.6 0.00 0.00 0.00 80 1017.4
20260507044844 3 336 0.0 0.0 0.00 0.00 0.00 79 1017.3
20260507044341 3 337 0.0 1.6 0.00 0.00 0.00 79 1017.3
20260507043837 3 337 0.0 0.0 0.00 0.00 0.00 77 1017.2
20260507043334 3 334 0.0 1.6 0.00 0.00 0.00 75 1017.1
20260507042830 3 335 0.0 1.6 0.00 0.00 0.00 75 1017.1
20260507042325 3 334 0.0 0.0 0.00 0.00 0.00 74 1017.1
20260507041823 3 332 0.0 0.0 0.00 0.00 0.00 72 1017.2
20260507041319 4 333 0.0 0.0 0.00 0.00 0.00 70 1017.1
20260507040816 4 338 0.0 1.6 0.00 0.00 0.00 71 1017.3
20260507040312 3 337 0.0 0.0 0.00 0.00 0.00 73 1017.3
20260507035808 4 338 0.0 0.0 0.00 0.00 0.00 72 1017.4
20260507035306 4 340 0.0 0.0 0.00 0.00 0.00 71 1017.3
20260507034802 4 342 1.6 1.6 0.00 0.00 0.00 70 1017.4
20260507034258 4 341 1.6 1.6 0.00 0.00 0.00 68 1017.4
20260507033757 5 341 0.0 0.0 0.00 0.00 0.00 67 1017.6
20260507033254 5 341 0.0 0.0 0.00 0.00 0.00 66 1017.4
20260507032751 5 341 0.0 0.0 0.00 0.00 0.00 65 1017.6
20260507032247 5 342 0.0 0.0 0.00 0.00 0.00 64 1017.5
20260507031743 5 343 0.0 0.0 0.00 0.00 0.00 64 1017.6
20260507031240 5 344 1.6 1.6 0.00 0.00 0.00 63 1017.5
20260507030737 6 330 0.0 0.0 0.00 0.00 0.00 60 1017.5
20260507030235 6 344 1.6 1.6 0.00 0.00 0.00 58 1017.3
20260507025732 6 343 0.0 1.6 0.00 0.00 0.00 56 1017.5
20260507025229 6 336 0.0 1.6 0.00 0.00 0.00 55 1017.4
20260507024727 6 336 0.0 0.0 0.00 0.00 0.00 54 1017.5
20260507024224 6 332 0.0 0.0 0.00 0.00 0.00 53 1017.5
20260507023719 7 332 0.0 0.0 0.00 0.00 0.00 52 1017.4
20260507023216 7 332 0.0 1.6 0.00 0.00 0.00 50 1017.3
20260507022714 7 329 0.0 0.0 0.00 0.00 0.00 49 1017.3
20260507022209 7 337 0.0 1.6 0.00 0.00 0.00 48 1017.3
20260507021706 7 334 1.6 1.6 0.00 0.00 0.00 48 1017.2
20260507021201 7 336 1.6 1.6 0.00 0.00 0.00 48 1017.2
20260507020700 8 324 3.2 3.2 0.00 0.00 0.00 46 1017.2
20260507020156 8 330 1.6 3.2 0.00 0.00 0.00 45 1016.9
20260507015654 8 309 4.8 4.8 0.00 0.00 0.00 44 1017.0
20260507015151 8 311 3.2 3.2 0.00 0.00 0.00 44 1017.0
20260507014647 8 310 6.4 6.4 0.00 0.00 0.00 43 1016.9
20260507014143 8 296 6.4 6.4 0.00 0.00 0.00 43 1017.0
20260507013641 8 323 6.4 9.7 0.00 0.00 0.00 43 1016.9
20260507013138 8 309 4.8 4.8 0.00 0.00 0.00 43 1016.8
20260507012635 9 317 6.4 6.4 0.00 0.00 0.00 42 1016.9
20260507012130 9 300 6.4 6.4 0.00 0.00 0.00 42 1016.6
20260507011629 9 332 8.0 9.7 0.00 0.00 0.00 41 1016.7
20260507011125 9 315 9.7 11.3 0.00 0.00 0.00 41 1016.7
20260507010620 10 262 11.3 14.5 0.00 0.00 0.00 40 1016.9
20260507010116 10 309 4.8 4.8 0.00 0.00 0.00 39 1016.7
20260507005613 10 337 4.8 4.8 0.00 0.00 0.00 40 1016.7
20260507005109 10 319 8.0 11.3 0.00 0.00 0.00 39 1016.7
20260507004606 10 324 14.5 17.7 0.00 0.00 0.00 38 1016.8
20260507004104 10 298 11.3 12.9 0.00 0.00 0.00 39 1016.7
20260507003600 10 290 19.3 24.1 0.00 0.00 0.00 38 1016.9
20260507003055 10 352 11.3 12.9 0.00 0.00 0.00 38 1016.7
20260507002552 11 311 8.0 9.7 0.00 0.00 0.00 38 1016.8
20260507002047 11 289 12.9 16.1 0.00 0.00 0.00 37 1017.0
20260507001544 11 280 9.7 12.9 0.00 0.00 0.00 37 1016.7
20260507001042 11 350 9.7 14.5 0.00 0.00 0.00 38 1016.7
20260507000538 11 297 4.8 11.3 0.00 0.00 0.00 38 1016.7
20260507000033 11 15 4.8 6.4 0.00 0.00 0.00 38 1016.7
20260506235531 11 323 9.7 12.9 0.00 0.00 0.00 37 1016.6
20260506235027 11 306 12.9 17.7 0.00 0.00 0.00 37 1016.7
20260506234525 11 325 14.5 17.7 0.00 0.00 0.00 38 1016.7
20260506234021 11 323 14.5 16.1 0.00 0.00 0.00 37 1016.7
20260506233518 11 247 8.0 12.9 0.00 0.00 0.00 37 1016.4
20260506233015 11 322 17.7 20.9 0.00 0.00 0.00 37 1016.6
20260506232511 11 319 17.7 24.1 0.00 0.00 0.00 37 1016.6
20260506232006 10 297 14.5 16.1 0.00 0.00 0.00 38 1016.8
20260506231504 11 283 19.3 24.1 0.00 0.00 0.00 38 1016.4
20260506231002 11 324 20.9 24.1 0.00 0.00 0.00 37 1016.8
20260506230458 11 312 6.4 9.7 0.00 0.00 0.00 38 1016.7
20260506225954 11 342 6.4 9.7 0.00 0.00 0.00 38 1016.7
20260506225452 11 288 16.1 17.7 0.00 0.00 0.00 38 1016.7
20260506224948 11 301 17.7 25.7 0.00 0.00 0.00 38 1016.8
20260506224446 11 310 14.5 14.5 0.00 0.00 0.00 38 1016.8
20260506223942 11 338 12.9 16.1 0.00 0.00 0.00 38 1016.7
20260506223438 11 359 11.3 16.1 0.00 0.00 0.00 38 1016.8
20260506222935 11 279 14.5 20.9 0.00 0.00 0.00 36 1016.8
20260506222431 11 338 8.0 14.5 0.00 0.00 0.00 37 1016.9
20260506221928 11 348 24.1 29.0 0.00 0.00 0.00 37 1016.7
20260506221425 11 298 19.3 24.1 0.00 0.00 0.00 36 1017.0
20260506220924 11 258 12.9 17.7 0.00 0.00 0.00 35 1016.9
20260506220419 11 308 19.3 24.1 0.00 0.00 0.00 35 1016.8
20260506215916 11 295 9.7 12.9 0.00 0.00 0.00 36 1016.7
20260506215412 11 299 9.7 11.3 0.00 0.00 0.00 36 1016.7
20260506214908 11 321 19.3 22.5 0.00 0.00 0.00 36 1016.7
20260506214405 12 321 11.3 12.9 0.00 0.00 0.00 35 1016.7
20260506213902 11 314 8.0 12.9 0.00 0.00 0.00 37 1017.0
20260506213359 11 9 12.9 17.7 0.00 0.00 0.00 38 1016.8
20260506212852 11 309 17.7 20.9 0.00 0.00 0.00 36 1017.0
20260506212347 11 316 6.4 12.9 0.00 0.00 0.00 37 1016.8
20260506211842 11 296 14.5 16.1 0.00 0.00 0.00 38 1016.8
20260506211338 11 349 12.9 17.7 0.00 0.00 0.00 38 1016.9
20260506210836 11 248 16.1 20.9 0.00 0.00 0.00 38 1016.8
20260506210333 11 301 17.7 24.1 0.00 0.00 0.00 37 1016.8
20260506205830 11 280 12.9 17.7 0.00 0.00 0.00 36 1017.0
20260506205325 11 301 9.7 16.1 0.00 0.00 0.00 37 1017.0
20260506204822 11 314 16.1 16.1 0.00 0.00 0.00 39 1017.2
20260506204319 11 339 11.3 14.5 0.00 0.00 0.00 37 1017.2
20260506203817 10 352 6.4 11.3 0.00 0.00 0.00 38 1017.5
20260506203314 10 310 16.1 22.5 0.00 0.00 0.00 38 1017.2
20260506202811 11 343 20.9 24.1 0.00 0.00 0.00 37 1017.2
20260506202308 11 228 14.5 20.9 0.00 0.00 0.00 36 1017.2
20260506201804 11 306 19.3 22.5 0.00 0.00 0.00 38 1017.1
20260506201302 11 298 11.3 12.9 0.00 0.00 0.00 37 1017.2
20260506200759 11 8 16.1 27.4 0.00 0.00 0.00 36 1017.3
20260506200255 11 284 17.7 27.4 0.00 0.00 0.00 35 1017.3
20260506195751 11 310 9.7 12.9 0.00 0.00 0.00 37 1017.2
20260506195248 11 272 11.3 16.1 0.00 0.00 0.00 37 1017.0
20260506194745 11 298 16.1 24.1 0.00 0.00 0.00 37 1017.1
20260506194241 11 314 11.3 16.1 0.00 0.00 0.00 36 1017.1
20260506193739 11 332 16.1 22.5 0.00 0.00 0.00 37 1016.9
20260506193236 11 304 19.3 22.5 0.00 0.00 0.00 36 1017.1
20260506192732 11 317 19.3 22.5 0.00 0.00 0.00 36 1017.3
20260506192229 11 333 14.5 17.7 0.00 0.00 0.00 36 1017.1
20260506191726 11 304 22.5 29.0 0.00 0.00 0.00 35 1017.1
20260506191222 11 275 16.1 17.7 0.00 0.00 0.00 37 1017.2
20260506190719 11 301 24.1 33.8 0.00 0.00 0.00 37 1017.3
20260506190216 11 308 22.5 30.6 0.00 0.00 0.00 37 1017.0
20260506185713 11 270 8.0 11.3 0.00 0.00 0.00 37 1016.7
20260506185209 11 250 22.5 29.0 0.00 0.00 0.00 36 1017.1
20260506184707 11 325 14.5 16.1 0.00 0.00 0.00 37 1017.0
20260506184204 11 300 12.9 14.5 0.00 0.00 0.00 37 1016.8
20260506183701 10 306 16.1 22.5 0.00 0.00 0.00 37 1016.9
20260506183156 11 275 11.3 16.1 0.00 0.00 0.00 37 1017.0
20260506182654 11 324 27.4 33.8 0.00 0.00 0.00 37 1016.9
20260506182152 11 10 14.5 20.9 0.00 0.00 0.00 37 1016.9
20260506181649 11 305 9.7 12.9 0.00 0.00 0.00 37 1017.0
20260506181146 11 87 20.9 27.4 0.00 0.00 0.00 38 1017.0
20260506180643 11 277 24.1 35.4 0.00 0.00 0.00 36 1017.0
20260506180139 11 320 16.1 22.5 0.00 0.00 0.00 37 1016.8
20260506175636 11 342 19.3 25.7 0.00 0.00 0.00 37 1016.8
20260506175132 11 301 20.9 27.4 0.00 0.00 0.00 36 1017.2
20260506174631 11 321 22.5 29.0 0.00 0.00 0.00 37 1017.0
20260506174127 11 257 9.7 11.3 0.00 0.00 0.00 38 1016.9
20260506173625 11 8 6.4 6.4 0.00 0.00 0.00 37 1017.1
20260506173121 10 308 25.7 29.0 0.00 0.00 0.00 37 1017.1
20260506172619 10 331 19.3 22.5 0.00 0.00 0.00 38 1017.2
20260506172115 11 5 20.9 27.4 0.00 0.00 0.00 38 1017.2
20260506171613 10 336 16.1 20.9 0.00 0.00 0.00 37 1017.1
20260506171111 10 290 16.1 20.9 0.00 0.00 0.00 38 1017.1
20260506170608 11 312 19.3 30.6 0.00 0.00 0.00 38 1017.3
20260506170105 11 320 16.1 20.9 0.00 0.00 0.00 38 1017.2
20260506165603 10 276 6.4 9.7 0.00 0.00 0.00 38 1017.2
20260506165059 10 332 20.9 24.1 0.00 0.00 0.00 39 1017.0
20260506164556 10 304 16.1 22.5 0.00 0.00 0.00 39 1017.2
20260506164053 10 323 20.9 24.1 0.00 0.00 0.00 39 1017.2
20260506163549 10 333 17.7 24.1 0.00 0.00 0.00 38 1017.2
20260506163045 10 301 27.4 33.8 0.00 0.00 0.00 39 1017.4
20260506162542 10 344 19.3 25.7 0.00 0.00 0.00 39 1017.3
20260506162039 10 340 27.4 33.8 0.00 0.00 0.00 39 1017.3
20260506161536 10 200 9.7 14.5 0.00 0.00 0.00 39 1017.2
20260506161033 10 324 19.3 27.4 0.00 0.00 0.00 39 1017.4
20260506160531 10 299 19.3 24.1 0.00 0.00 0.00 39 1017.4
20260506160028 10 327 16.1 20.9 0.00 0.00 0.00 40 1017.2
20260506155526 10 312 17.7 22.5 0.00 0.00 0.00 40 1017.3
20260506153657 9 290 24.1 30.6 0.00 0.00 0.00 40 1017.3
20260506153154 9 320 17.7 24.1 0.00 0.00 0.00 41 1017.2
20260506152651 9 328 25.7 29.0 0.00 0.00 0.00 41 1017.3
20260506152149 10 318 14.5 17.7 0.00 0.00 0.00 41 1017.1
20260506151648 9 351 14.5 16.1 0.00 0.00 0.00 42 1017.1
20260506151144 8 356 12.9 14.5 0.00 0.00 0.00 43 1017.1
20260506150641 9 315 20.9 27.4 0.00 0.00 0.00 42 1017.0
20260506150138 9 319 20.9 24.1 0.00 0.00 0.00 43 1017.0
20260506145635 8 35 14.5 16.1 0.00 0.00 0.00 44 1017.1
20260506145131 8 332 16.1 17.7 0.00 0.00 0.00 45 1017.1
20260506144629 8 325 17.7 20.9 0.00 0.00 0.00 46 1016.9
20260506144125 8 316 16.1 22.5 0.00 0.00 0.00 45 1016.8
20260506143623 8 326 22.5 29.0 0.00 0.00 0.00 45 1016.9
20260506143121 8 5 8.0 11.3 0.00 0.00 0.00 46 1016.9
20260506142619 8 327 11.3 16.1 0.00 0.00 0.00 45 1017.1
20260506142117 8 316 16.1 17.7 0.00 0.00 0.00 45 1016.9
20260506141614 8 282 4.8 9.7 0.00 0.00 0.00 46 1017.2
20260506141112 8 316 6.4 9.7 0.00 0.00 0.00 48 1017.0
20260506140610 8 315 9.7 12.9 0.00 0.00 0.00 49 1016.9
20260506140107 7 318 12.9 14.5 0.00 0.00 0.00 49 1017.1
20260506135603 7 264 8.0 12.9 0.00 0.00 0.00 51 1017.0
20260506135059 7 299 16.1 17.7 0.00 0.00 0.00 51 1017.1
20260506134556 7 331 6.4 6.4 0.00 0.00 0.00 52 1017.1
20260506134052 7 331 6.4 11.3 0.00 0.00 0.00 53 1017.0
20260506133549 7 293 6.4 9.7 0.00 0.00 0.00 53 1016.7
20260506133046 7 281 17.7 22.5 0.00 0.00 0.00 53 1016.8
20260506132544 7 307 11.3 12.9 0.00 0.00 0.00 55 1016.7
20260506132041 7 308 14.5 16.1 0.00 0.00 0.00 54 1016.7
20260506131538 7 339 4.8 6.4 0.00 0.00 0.00 54 1016.7
20260506131034 7 344 4.8 6.4 0.00 0.00 0.00 54 1016.7
20260506130531 7 310 12.9 16.1 0.00 0.00 0.00 53 1016.5
20260506130029 7 317 9.7 14.5 0.00 0.00 0.00 54 1016.3
20260506125527 7 347 3.2 4.8 0.00 0.00 0.00 55 1016.5
20260506125024 6 297 11.3 12.9 0.00 0.00 0.00 55 1016.3
20260506124522 6 319 11.3 12.9 0.00 0.00 0.00 56 1016.4
20260506124020 6 351 8.0 9.7 0.00 0.00 0.00 56 1016.3
20260506123517 6 298 9.7 12.9 0.00 0.00 0.00 56 1016.3
20260506123015 6 351 6.4 9.7 0.00 0.00 0.00 58 1016.2
20260506122512 6 279 8.0 11.3 0.00 0.00 0.00 58 1016.1
20260506122010 5 334 9.7 12.9 0.00 0.00 0.00 59 1016.1
20260506121507 5 337 9.7 11.3 0.00 0.00 0.00 61 1016.0
20260506121003 5 355 4.8 6.4 0.00 0.00 0.00 63 1015.9
20260506120501 5 337 4.8 4.8 0.00 0.00 0.00 63 1015.9
20260506115958 5 1 9.7 11.3 0.00 0.00 0.00 63 1015.8
20260506115456 5 321 8.0 9.7 0.00 0.00 0.00 63 1015.5
20260506114954 5 349 9.7 11.3 0.00 0.00 0.00 64 1015.5
20260506114451 5 320 6.4 6.4 0.00 0.00 0.00 64 1015.2
20260506113950 4 357 6.4 6.4 0.00 0.00 0.00 65 1015.0
20260506113447 4 326 4.8 4.8 0.00 0.00 0.00 66 1015.1
20260506112943 4 318 3.2 4.8 0.00 0.00 0.00 66 1015.0
20260506112441 3 20 8.0 9.7 0.00 0.00 0.00 67 1014.9
20260506111938 3 336 4.8 4.8 0.00 0.00 0.00 68 1014.9
20260506111437 3 14 3.2 4.8 0.00 0.00 0.00 69 1015.0
20260506110933 3 331 4.8 6.4 0.00 0.00 0.00 71 1015.0
20260506110431 3 339 3.2 3.2 0.00 0.00 0.00 73 1014.9
20260506105927 3 328 3.2 3.2 0.00 0.00 0.00 74 1014.9
20260506105424 3 315 1.6 1.6 0.00 0.00 0.00 74 1014.7
20260506104921 3 324 3.2 3.2 0.00 0.00 0.00 74 1014.7
20260506104419 2 310 3.2 3.2 0.00 0.00 0.00 74 1014.7
20260506103917 2 325 1.6 1.6 0.00 0.00 0.00 76 1014.7
20260506103414 2 332 0.0 0.0 0.00 0.00 0.00 77 1014.6
20260506102911 2 330 0.0 1.6 0.00 0.00 0.00 77 1014.5
20260506102409 2 328 0.0 0.0 0.00 0.00 0.00 78 1014.8
20260506101906 2 329 0.0 1.6 0.00 0.00 0.00 78 1014.8
20260506101402 2 326 1.6 1.6 0.00 0.00 0.00 78 1014.8
20260506100859 2 320 1.6 1.6 0.00 0.00 0.00 77 1014.6
20260506100358 2 314 3.2 3.2 0.00 0.00 0.00 77 1014.8